Time,TemperatureF,DewpointF,PressureIn,WindDirection,WindDirectionDegrees,WindSpeedMPH,WindSpeedGustMPH,Humidity,HourlyPrecipIn,Conditions,Clouds,dailyrainin,SoftwareType,DateUTC
2013-03-07 00:01:00,28.0,26.0,30.32,NNW,333,2.0,7.0,91,0.00,,,0.10,,2013-03-07 06:01:00,
2013-03-07 00:11:00,28.0,26.0,30.32,NNW,333,2.0,7.0,91,0.00,,,0.10,,2013-03-07 06:11:00,
2013-03-07 00:21:00,28.0,26.0,30.32,North,355,2.0,5.0,91,0.00,,,0.10,,2013-03-07 06:21:00,
2013-03-07 00:32:00,28.0,26.0,30.33,NNW,348,2.0,5.0,91,0.00,,,0.10,,2013-03-07 06:32:00,
2013-03-07 00:42:00,28.0,26.0,30.33,NNW,348,2.0,5.0,91,0.00,,,0.10,,2013-03-07 06:42:00,
2013-03-07 00:52:00,28.0,26.0,30.33,North,360,3.0,6.0,91,0.00,,,0.10,,2013-03-07 06:52:00,
2013-03-07 01:01:00,28.0,26.0,30.33,North,351,3.0,6.0,91,0.00,,,0.10,,2013-03-07 07:01:00,
2013-03-07 01:11:00,28.0,26.0,30.33,North,351,3.0,6.0,91,0.00,,,0.10,,2013-03-07 07:11:00,
2013-03-07 01:21:00,28.0,26.0,30.34,North,360,1.0,4.0,91,0.00,,,0.10,,2013-03-07 07:21:00,
2013-03-07 01:32:00,28.0,26.0,30.34,North,351,2.0,5.0,91,0.00,,,0.10,,2013-03-07 07:32:00,
2013-03-07 01:42:00,28.0,26.0,30.34,North,351,2.0,5.0,91,0.00,,,0.10,,2013-03-07 07:42:00,
2013-03-07 01:53:00,28.0,25.0,30.34,North,355,1.0,4.0,90,0.00,,,0.10,,2013-03-07 07:53:00,
2013-03-07 02:02:00,28.0,25.0,30.34,NNW,335,1.0,5.0,90,0.00,,,0.10,,2013-03-07 08:02:00,
2013-03-07 02:12:00,28.0,25.0,30.34,NNW,335,1.0,5.0,90,0.00,,,0.10,,2013-03-07 08:12:00,
2013-03-07 02:22:00,28.0,25.0,30.34,NNW,335,1.0,5.0,90,0.00,,,0.10,,2013-03-07 08:22:00,
2013-03-07 02:33:00,27.0,24.0,30.35,North,355,1.0,5.0,90,0.00,,,0.10,,2013-03-07 08:33:00,
2013-03-07 02:43:00,27.0,24.0,30.35,North,355,1.0,5.0,90,0.00,,,0.10,,2013-03-07 08:43:00,
2013-03-07 02:54:00,27.0,24.0,30.35,NNW,345,2.0,5.0,90,0.00,,,0.10,,2013-03-07 08:54:00,
2013-03-07 03:03:00,27.0,24.0,30.35,NNW,346,2.0,5.0,90,0.00,,,0.10,,2013-03-07 09:03:00,
2013-03-07 03:13:00,27.0,24.0,30.35,NNW,346,2.0,5.0,90,0.00,,,0.10,,2013-03-07 09:13:00,
2013-03-07 03:23:00,27.0,24.0,30.35,North,5,2.0,6.0,90,0.00,,,0.10,,2013-03-07 09:23:00,
2013-03-07 03:32:00,27.0,24.0,30.36,North,355,0.0,6.0,90,0.00,,,0.10,,2013-03-07 09:32:00,
2013-03-07 03:42:00,27.0,24.0,30.36,North,355,0.0,6.0,90,0.00,,,0.10,,2013-03-07 09:42:00,
2013-03-07 03:53:00,27.0,24.0,30.36,North,5,2.0,5.0,90,0.00,,,0.10,,2013-03-07 09:53:00,
2013-03-07 04:03:00,27.0,24.0,30.37,North,360,3.0,7.0,90,0.00,,,0.10,,2013-03-07 10:03:00,
2013-03-07 04:13:00,27.0,24.0,30.37,North,360,3.0,7.0,90,0.00,,,0.10,,2013-03-07 10:13:00,
2013-03-07 04:23:00,27.0,24.0,30.37,North,5,2.0,6.0,90,0.00,,,0.10,,2013-03-07 10:23:00,
2013-03-07 04:33:00,27.0,24.0,30.37,NNW,344,3.0,6.0,90,0.00,,,0.10,,2013-03-07 10:33:00,
2013-03-07 04:42:00,27.0,24.0,30.37,NNW,344,3.0,6.0,90,0.00,,,0.10,,2013-03-07 10:42:00,
2013-03-07 04:53:00,27.0,24.0,30.37,North,360,1.0,7.0,90,0.00,,,0.10,,2013-03-07 10:53:00,
2013-03-07 05:02:00,27.0,24.0,30.37,WNW,294,2.0,5.0,90,0.00,,,0.10,,2013-03-07 11:02:00,
2013-03-07 05:12:00,27.0,24.0,30.37,WNW,294,2.0,5.0,90,0.00,,,0.10,,2013-03-07 11:12:00,
2013-03-07 05:23:00,27.0,24.0,30.37,NNW,347,2.0,4.0,90,0.00,,,0.10,,2013-03-07 11:23:00,
2013-03-07 05:33:00,27.0,24.0,30.37,North,351,2.0,5.0,90,0.00,,,0.10,,2013-03-07 11:33:00,
2013-03-07 05:43:00,27.0,24.0,30.37,North,351,2.0,5.0,90,0.00,,,0.10,,2013-03-07 11:43:00,
2013-03-07 05:54:00,27.0,24.0,30.37,North,360,1.0,4.0,90,0.00,,,0.10,,2013-03-07 11:54:00,
2013-03-07 06:12:00,27.0,24.0,30.37,North,355,2.0,5.0,90,0.00,,,0.10,,2013-03-07 12:12:00,
2013-03-07 06:33:00,27.0,24.0,30.38,North,355,0.0,3.0,90,0.00,,,0.10,,2013-03-07 12:33:00,
2013-03-07 06:42:00,27.0,24.0,30.38,North,355,0.0,3.0,90,0.00,,,0.10,,2013-03-07 12:42:00,
2013-03-07 06:53:00,27.0,25.0,30.39,North,9,0.0,2.0,91,0.00,,,0.10,,2013-03-07 12:53:00,
2013-03-07 07:02:00,27.0,25.0,30.39,North,9,0.0,3.0,91,0.00,,,0.10,,2013-03-07 13:02:00,
2013-03-07 07:12:00,27.0,25.0,30.39,North,9,0.0,3.0,91,0.00,,,0.10,,2013-03-07 13:12:00,
2013-03-07 07:22:00,27.0,25.0,30.39,North,10,1.0,4.0,91,0.00,,,0.10,,2013-03-07 13:22:00,
2013-03-07 07:32:00,27.0,24.0,30.40,NNW,347,2.0,5.0,90,0.00,,,0.10,,2013-03-07 13:32:00,
2013-03-07 07:42:00,27.0,24.0,30.40,NNW,347,2.0,5.0,90,0.00,,,0.10,,2013-03-07 13:42:00,
2013-03-07 07:53:00,28.0,25.0,30.40,North,360,2.0,5.0,90,0.00,,,0.10,,2013-03-07 13:53:00,
2013-03-07 08:02:00,28.0,25.0,30.40,NNW,346,1.0,4.0,89,0.00,,,0.10,,2013-03-07 14:02:00,
2013-03-07 08:12:00,28.0,25.0,30.40,NNW,346,1.0,4.0,89,0.00,,,0.10,,2013-03-07 14:12:00,
2013-03-07 08:22:00,28.0,25.0,30.41,NNW,344,3.0,5.0,88,0.00,,,0.10,,2013-03-07 14:22:00,
2013-03-07 08:32:00,29.0,26.0,30.42,NW,322,2.0,4.0,88,0.00,,,0.10,,2013-03-07 14:32:00,
2013-03-07 08:42:00,29.0,26.0,30.42,NW,322,2.0,4.0,88,0.00,,,0.10,,2013-03-07 14:42:00,
2013-03-07 08:54:00,30.0,27.0,30.42,North,355,2.0,4.0,87,0.00,,,0.10,,2013-03-07 14:54:00,
2013-03-07 09:02:00,30.0,26.0,30.42,North,360,2.0,5.0,85,0.00,,,0.10,,2013-03-07 15:02:00,
2013-03-07 09:12:00,30.0,26.0,30.42,North,360,2.0,5.0,85,0.00,,,0.10,,2013-03-07 15:12:00,
2013-03-07 09:23:00,31.0,27.0,30.42,NNW,347,2.0,4.0,85,0.00,,,0.10,,2013-03-07 15:23:00,
2013-03-07 09:32:00,31.0,27.0,30.42,North,349,2.0,4.0,84,0.00,,,0.10,,2013-03-07 15:32:00,
2013-03-07 09:42:00,31.0,27.0,30.42,North,349,2.0,4.0,84,0.00,,,0.10,,2013-03-07 15:42:00,
2013-03-07 09:53:00,31.0,27.0,30.42,North,349,2.0,4.0,84,0.00,,,0.10,,2013-03-07 15:53:00,
2013-03-07 10:02:00,32.0,27.0,30.43,NNW,344,3.0,5.0,82,0.01,,,0.11,,2013-03-07 16:02:00,
2013-03-07 10:12:00,32.0,27.0,30.43,NNW,344,3.0,5.0,82,0.01,,,0.11,,2013-03-07 16:12:00,
2013-03-07 10:23:00,32.0,27.0,30.43,North,5,2.0,5.0,82,0.02,,,0.12,,2013-03-07 16:23:00,
2013-03-07 10:32:00,33.0,28.0,30.43,NNE,26,3.0,5.0,82,0.03,,,0.13,,2013-03-07 16:32:00,
2013-03-07 10:42:00,33.0,28.0,30.43,NNE,26,3.0,5.0,82,0.03,,,0.13,,2013-03-07 16:42:00,
2013-03-07 10:53:00,33.0,28.0,30.43,NNE,19,2.0,5.0,81,0.04,,,0.15,,2013-03-07 16:53:00,
2013-03-07 11:02:00,34.0,28.0,30.43,North,11,4.0,5.0,80,0.05,,,0.16,,2013-03-07 17:02:00,
2013-03-07 11:12:00,34.0,28.0,30.43,North,11,4.0,5.0,80,0.05,,,0.16,,2013-03-07 17:12:00,
2013-03-07 11:22:00,34.0,28.0,30.43,NNE,13,3.0,6.0,80,0.06,,,0.18,,2013-03-07 17:22:00,
2013-03-07 11:32:00,35.0,29.0,30.42,NNE,19,3.0,5.0,79,0.07,,,0.20,,2013-03-07 17:32:00,
2013-03-07 11:43:00,35.0,29.0,30.42,NNE,19,3.0,5.0,79,0.07,,,0.20,,2013-03-07 17:43:00,
2013-03-07 11:54:00,35.0,29.0,30.42,NNE,23,2.0,5.0,78,0.07,,,0.22,,2013-03-07 17:54:00,
2013-03-07 12:03:00,36.0,29.0,30.41,North,9,2.0,4.0,77,0.08,,,0.24,,2013-03-07 18:03:00,
2013-03-07 12:12:00,36.0,29.0,30.41,North,9,2.0,4.0,77,0.08,,,0.24,,2013-03-07 18:12:00,
2013-03-07 12:22:00,36.0,29.0,30.42,North,349,1.0,4.0,77,0.08,,,0.24,,2013-03-07 18:22:00,
2013-03-07 12:32:00,37.0,29.0,30.42,NNE,16,1.0,4.0,73,0.07,,,0.25,,2013-03-07 18:32:00,
2013-03-07 12:42:00,37.0,29.0,30.42,NNE,16,1.0,4.0,73,0.07,,,0.25,,2013-03-07 18:42:00,
2013-03-07 12:53:00,37.0,29.0,30.42,SW,236,0.0,5.0,73,0.05,,,0.26,,2013-03-07 18:53:00,
2013-03-07 13:03:00,36.0,28.0,30.41,North,360,1.0,5.0,71,0.04,,,0.26,,2013-03-07 19:03:00,
2013-03-07 13:12:00,36.0,28.0,30.41,North,360,1.0,5.0,71,0.04,,,0.26,,2013-03-07 19:12:00,
2013-03-07 13:23:00,36.0,28.0,30.41,North,360,1.0,5.0,71,0.04,,,0.26,,2013-03-07 19:23:00,
2013-03-07 13:34:00,36.0,28.0,30.40,North,9,3.0,5.0,71,0.02,,,0.24,,2013-03-07 19:34:00,
2013-03-07 13:43:00,36.0,28.0,30.40,North,9,3.0,5.0,71,0.02,,,0.24,,2013-03-07 19:43:00,
2013-03-07 13:53:00,37.0,29.0,30.40,WNW,302,1.0,4.0,72,0.01,,,0.24,,2013-03-07 19:53:00,
2013-03-07 14:02:00,37.0,27.0,30.40,NNW,347,2.0,6.0,68,0.01,,,0.24,,2013-03-07 20:02:00,
2013-03-07 14:13:00,37.0,27.0,30.40,NNW,347,2.0,6.0,68,0.01,,,0.24,,2013-03-07 20:13:00,
2013-03-07 14:22:00,36.0,25.0,30.40,WSW,256,1.0,5.0,65,0.00,,,0.22,,2013-03-07 20:22:00,
2013-03-07 14:33:00,36.0,25.0,30.40,NW,306,0.0,3.0,65,0.00,,,0.22,,2013-03-07 20:33:00,
2013-03-07 14:42:00,36.0,25.0,30.40,NW,306,0.0,3.0,65,0.00,,,0.22,,2013-03-07 20:42:00,
2013-03-07 14:54:00,36.0,28.0,30.40,North,355,2.0,5.0,71,0.00,,,0.22,,2013-03-07 20:54:00,
2013-03-07 15:02:00,35.0,27.0,30.40,North,360,1.0,4.0,71,0.00,,,0.22,,2013-03-07 21:02:00,
2013-03-07 15:12:00,35.0,27.0,30.40,North,360,1.0,4.0,71,0.00,,,0.22,,2013-03-07 21:12:00,
2013-03-07 15:22:00,35.0,26.0,30.40,North,360,1.0,4.0,70,0.00,,,0.20,,2013-03-07 21:22:00,
2013-03-07 15:32:00,35.0,25.0,30.40,North,360,1.0,3.0,67,0.00,,,0.20,,2013-03-07 21:32:00,
2013-03-07 15:42:00,35.0,25.0,30.40,North,360,1.0,3.0,67,0.00,,,0.20,,2013-03-07 21:42:00,
2013-03-07 15:53:00,35.0,25.0,30.41,North,360,0.0,3.0,67,0.00,,,0.20,,2013-03-07 21:53:00,
2013-03-07 16:01:00,35.0,26.0,30.41,NW,324,1.0,4.0,69,0.00,,,0.20,,2013-03-07 22:01:00,
2013-03-07 16:12:00,35.0,26.0,30.41,NW,324,1.0,4.0,69,0.00,,,0.20,,2013-03-07 22:12:00,
2013-03-07 16:22:00,35.0,27.0,30.41,NW,323,0.0,2.0,71,0.00,,,0.20,,2013-03-07 22:22:00,
2013-03-07 16:32:00,35.0,26.0,30.41,NW,317,0.0,3.0,68,0.00,,,0.20,,2013-03-07 22:32:00,
2013-03-07 16:42:00,35.0,26.0,30.41,NW,317,0.0,3.0,68,0.00,,,0.20,,2013-03-07 22:42:00,
2013-03-07 17:02:00,34.0,25.0,30.42,North,360,2.0,4.0,69,0.00,,,0.20,,2013-03-07 23:02:00,
2013-03-07 17:12:00,34.0,25.0,30.42,North,360,2.0,4.0,69,0.00,,,0.20,,2013-03-07 23:12:00,
2013-03-07 17:22:00,34.0,26.0,30.42,NNW,330,0.0,4.0,73,0.00,,,0.19,,2013-03-07 23:22:00,
2013-03-07 17:33:00,34.0,26.0,30.42,WNW,283,0.0,3.0,73,0.00,,,0.19,,2013-03-07 23:33:00,
2013-03-07 17:43:00,34.0,26.0,30.42,WNW,283,0.0,3.0,73,0.00,,,0.19,,2013-03-07 23:43:00,
2013-03-07 17:54:00,34.0,26.0,30.42,WNW,283,0.0,3.0,73,0.00,,,0.19,,2013-03-07 23:54:00,
2013-03-07 18:12:00,33.0,25.0,30.42,WNW,297,0.0,3.0,71,0.00,,,0.19,,2013-03-08 00:12:00,
2013-03-07 18:23:00,33.0,24.0,30.41,SW,232,0.0,3.0,70,0.00,,,0.19,,2013-03-08 00:23:00,
2013-03-07 18:34:00,33.0,25.0,30.42,WNW,291,0.0,2.0,72,0.00,,,0.19,,2013-03-08 00:34:00,
2013-03-07 18:43:00,33.0,25.0,30.42,WNW,291,0.0,2.0,72,0.00,,,0.19,,2013-03-08 00:43:00,
2013-03-07 18:53:00,33.0,26.0,30.42,SSE,150,0.0,0.0,74,0.00,,,0.19,,2013-03-08 00:53:00,
2013-03-07 19:02:00,33.0,25.0,30.42,NNE,30,0.0,3.0,73,0.00,,,0.19,,2013-03-08 01:02:00,
2013-03-07 19:11:00,33.0,25.0,30.42,NNE,30,0.0,3.0,73,0.00,,,0.19,,2013-03-08 01:11:00,
2013-03-07 19:21:00,33.0,26.0,30.42,East,99,0.0,2.0,74,0.00,,,0.19,,2013-03-08 01:21:00,
2013-03-07 19:32:00,33.0,26.0,30.42,East,99,0.0,0.0,75,0.00,,,0.19,,2013-03-08 01:32:00,
2013-03-07 19:42:00,33.0,26.0,30.42,East,99,0.0,0.0,75,0.00,,,0.19,,2013-03-08 01:42:00,
2013-03-07 19:52:00,32.0,26.0,30.42,East,99,0.0,0.0,79,0.00,,,0.19,,2013-03-08 01:52:00,
2013-03-07 20:01:00,31.0,25.0,30.42,East,99,0.0,1.0,78,0.00,,,0.19,,2013-03-08 02:01:00,
2013-03-07 20:11:00,30.0,25.0,30.42,East,99,0.0,0.0,81,0.00,,,0.19,,2013-03-08 02:11:00,
2013-03-07 20:22:00,30.0,25.0,30.42,East,99,0.0,0.0,81,0.00,,,0.19,,2013-03-08 02:22:00,
2013-03-07 20:32:00,30.0,25.0,30.43,East,99,0.0,1.0,82,0.00,,,0.19,,2013-03-08 02:32:00,
2013-03-07 20:42:00,30.0,25.0,30.43,East,99,0.0,1.0,82,0.00,,,0.19,,2013-03-08 02:42:00,
2013-03-07 20:53:00,30.0,25.0,30.42,East,99,0.0,0.0,83,0.00,,,0.19,,2013-03-08 02:53:00,
2013-03-07 21:02:00,30.0,26.0,30.43,East,99,0.0,0.0,84,0.00,,,0.19,,2013-03-08 03:02:00,
2013-03-07 21:12:00,30.0,26.0,30.43,East,99,0.0,0.0,84,0.00,,,0.19,,2013-03-08 03:12:00,
2013-03-07 21:22:00,29.0,25.0,30.42,East,99,0.0,0.0,85,0.00,,,0.19,,2013-03-08 03:22:00,
2013-03-07 21:32:00,29.0,25.0,30.42,East,99,0.0,0.0,86,0.00,,,0.19,,2013-03-08 03:32:00,
2013-03-07 21:42:00,29.0,25.0,30.42,East,99,0.0,0.0,86,0.00,,,0.19,,2013-03-08 03:42:00,
2013-03-07 21:53:00,28.0,24.0,30.42,East,99,0.0,0.0,86,0.00,,,0.19,,2013-03-08 03:53:00,
2013-03-07 22:01:00,28.0,25.0,30.43,East,99,0.0,0.0,87,0.00,,,0.19,,2013-03-08 04:01:00,
2013-03-07 22:11:00,28.0,25.0,30.43,East,99,0.0,0.0,87,0.00,,,0.19,,2013-03-08 04:11:00,
2013-03-07 22:22:00,27.0,24.0,30.43,East,99,0.0,0.0,88,0.00,,,0.19,,2013-03-08 04:22:00,
2013-03-07 22:32:00,27.0,24.0,30.43,East,99,0.0,0.0,88,0.00,,,0.19,,2013-03-08 04:32:00,
2013-03-07 22:42:00,27.0,24.0,30.43,East,99,0.0,0.0,88,0.00,,,0.19,,2013-03-08 04:42:00,
2013-03-07 22:52:00,27.0,24.0,30.43,East,99,0.0,0.0,88,0.00,,,0.19,,2013-03-08 04:52:00,
2013-03-07 23:02:00,26.0,23.0,30.44,East,99,0.0,0.0,89,0.00,,,0.19,,2013-03-08 05:02:00,
2013-03-07 23:12:00,26.0,23.0,30.44,East,99,0.0,0.0,89,0.00,,,0.19,,2013-03-08 05:12:00,
2013-03-07 23:22:00,26.0,23.0,30.43,East,99,0.0,0.0,90,0.00,,,0.19,,2013-03-08 05:22:00,
2013-03-07 23:32:00,26.0,23.0,30.43,East,99,0.0,0.0,89,0.00,,,0.19,,2013-03-08 05:32:00,
2013-03-07 23:42:00,26.0,23.0,30.43,East,99,0.0,0.0,89,0.00,,,0.19,,2013-03-08 05:42:00,
2013-03-07 23:52:00,24.0,21.0,30.43,East,99,0.0,2.0,89,0.00,,,0.19,,2013-03-08 05:52:00,